Regional Weather Roundup
Issued by NWS

Home | Current Version | Previous Version | Graphics & Text | Print | Product List | Glossary On
Versions: 1 2 3 4 5 6 7 8 9 10 11 12 13 14 15 16 17 18 19 20 21 22 23 24 25 26 27 28 29 30 31 32 33 34 35 36 37 38 39 40 41 42 43 44 45 46 47 48 49 50
000
ASUS45 KSLC 022110
RWRUT

UTAH REGIONAL WEATHER ROUNDUP
NATIONAL WEATHER SERVICE SALT LAKE CITY UT
200 PM MST MON MAR 02 2015

UTZ001>011-023>025-022200-

NORTHERN UTAH

CITY           SKY/WX    TMP DP  RH WIND       PRES   REMARKS
BRIGHAM CITY   CLOUDY    42  29  61 W8        29.67S
HILL AFB       CLOUDY    40  29  65 SW7       29.66F
LOGAN          CLOUDY    40  25  55 N5        29.66F
OGDEN          CLOUDY    41  29  62 W6        29.66F
PROVO AIRPORT  PTSUNNY   39  36  87 VRB3      29.70F
SALT LAKE CITY LGT RAIN  41  35  79 SE5       29.66F
VERNAL         LGT SNOW  33  32  96 CALM      29.66F VSB 3/4
WENDOVER       CLOUDY    36  30  80 SW3       29.70F
HEBER CITY     LGT SNOW  34  32  93 CALM      29.68F
WEST JORDAN    CLOUDY    41  37  87 S16G22    29.67F

$$

UTZ012>022-026-027-022200-

SOUTHERN/CENTRAL UTAH

CITY           SKY/WX    TMP DP  RH WIND       PRES   REMARKS
BLANDING       CLOUDY    42  38  84 S13       29.78F
BRYCE CANYON   PTSUNNY   34  28  79 CALM      29.70F
CEDAR CITY     PTSUNNY   36  31  82 S20       29.67F WCI  25
DELTA          CLOUDY    37  36  94 SW13      29.70S WCI  29
HANKSVILLE     CLOUDY    37  37 100 NW7       29.71F WCI  32
MILFORD        FLURRIES  35  33  92 S13       29.65F WCI  26
MOAB/CYNLANDS  LGT RAIN  41  39  93 W17       29.65R
PRICE          SNOW      34  32  92 S3        29.68F VSB 1/2
ST GEORGE      CLOUDY    48  37  66 S10G16    29.77F
KANAB            N/A     34  34 100 CALM      29.81F

$$

REGIONAL REPORTS     COLORADO/ARIZONA

CITY           SKY/WX    TMP DP  RH WIND       PRES   REMARKS
CRAIG, CO      LGT RAIN  44  35  70 CALM      29.66F
GRAND JUNCTION PTSUNNY   55  37  50 S24G36    29.64F
RIFLE          CLOUDY    41  38  89 N5        29.67F
MONTROSE       NOT AVBL
CORTEZ         CLOUDY    51  32  48 S20G31    29.74F
PAGE, AZ       CLOUDY    43  38  82 E3        29.77R
GRAND CANYON   SNOW      31  29  92 SW13      29.81F VSB 1/2 WCI  21
KINGMAN        MOSUNNY   49  40  71 SW20      29.84S
FLAGSTAFF      HVY SNOW  30  28  92 SW15      29.83F VSB 1/4 WCI  19

$$

REGIONAL REPORTS    NEVADA/IDAHO/WYOMING

CITY           SKY/WX    TMP DP  RH WIND       PRES   REMARKS
LAS VEGAS, NV  PTSUNNY   57  36  45 SW21G29   29.73F
ELY            CLOUDY    34  29  82 N9        29.65F WCI  27
ELKO           CLOUDY    42  24  49 NW15      29.67F
POCATELLO, ID  CLOUDY    41  20  43 E6        29.68F
BURLEY         MOSUNNY   46  19  34 CALM      29.66F
EVANSTON, WY   CLOUDY    30  23  75 E7        29.64F WCI  23
ROCK SPRINGS   LGT SNOW  31  29  92 N7        29.64F VSB 3/4 WCI  24
KEMMERER       CLOUDY    32  27  80 E5        29.67S WCI  27

$$



USA.gov is the U.S. government's official web portal to all federal, state and local government web resources and services.